• In Spain
  • List of Countries
  • For 7 days
  • Water Temperature
  • Satellite Maps
  • Weather Map
  • Weather Widgets
  • user-avatar
    Login

    Hourly Weather Pamporovo

    Today, 26 September, Wednesday

    Time Temperature Precipitation Wind Pressure Humidity
    00:00 -2°C° 0 mm 3 mps 632 mmHg 48%
    01:00 -2°C° 0 mm 3 mps 632 mmHg 50%
    02:00 -2°C° 0 mm 3 mps 632 mmHg 51%
    03:00 -4°C° 0 mm 3 mps 632 mmHg 53%
    04:00 -4°C° 0 mm 3 mps 632 mmHg 56%
    05:00 -4°C° 0 mm 3 mps 632 mmHg 58%
    06:00 -2°C° 0 mm 3 mps 632 mmHg 56%
    07:00 -2°C° 0 mm 4 mps 633 mmHg 54%
    08:00 -1°C° 0 mm 4 mps 634 mmHg 51%
    09:00 0°C° 0 mm 5 mps 634 mmHg 46%
    10:00 +2°C° 0 mm 5 mps 635 mmHg 41%
    11:00 +3°C° 0 mm 6 mps 635 mmHg 36%
    12:00 +4°C° 0 mm 6 mps 635 mmHg 35%
    13:00 +4°C° 0 mm 6 mps 635 mmHg 33%
    14:00 +5°C° 0 mm 7 mps 635 mmHg 32%
    15:00 +4°C° 0 mm 7 mps 634 mmHg 34%
    16:00 +3°C° 0 mm 7 mps 634 mmHg 35%
    17:00 +3°C° 0 mm 7 mps 634 mmHg 37%
    18:00 +1°C° 0 mm 6 mps 633 mmHg 42%
    19:00 0°C° 0 mm 5 mps 633 mmHg 47%
    20:00 -2°C° 0 mm 5 mps 633 mmHg 52%
    21:00 -2°C° 0 mm 4 mps 633 mmHg 54%
    22:00 -3°C° 0 mm 4 mps 633 mmHg 56%
    23:00 -4°C° 0 mm 4 mps 633 mmHg 59%

    Tomorrow, 27 September, Thursday

    Time Temperature Precipitation Wind Pressure Humidity
    00:00 -4°C° 0 mm 4 mps 632 mmHg 59%
    01:00 -4°C° 0 mm 4 mps 632 mmHg 60%
    02:00 -5°C° 0 mm 4 mps 632 mmHg 61%
    03:00 -5°C° 0 mm 4 mps 632 mmHg 61%
    04:00 -5°C° 0 mm 4 mps 631 mmHg 61%
    05:00 -5°C° 0 mm 4 mps 631 mmHg 61%
    06:00 -4°C° 0 mm 4 mps 632 mmHg 55%
    07:00 -4°C° 0 mm 5 mps 632 mmHg 49%
    08:00 -1°C° 0 mm 5 mps 632 mmHg 42%
    09:00 0°C° 0 mm 5 mps 633 mmHg 37%
    10:00 +2°C° 0 mm 5 mps 633 mmHg 31%
    11:00 +5°C° 0 mm 5 mps 634 mmHg 26%
    12:00 +6°C° 0 mm 5 mps 634 mmHg 24%
    13:00 +7°C° 0 mm 5 mps 633 mmHg 23%
    14:00 +8°C° 0 mm 5 mps 633 mmHg 22%
    15:00 +7°C° 0 mm 4 mps 633 mmHg 24%
    16:00 +7°C° 0 mm 4 mps 632 mmHg 25%
    17:00 +6°C° 0 mm 4 mps 632 mmHg 27%
    18:00 +4°C° 0 mm 3 mps 631 mmHg 31%
    19:00 +2°C° 0 mm 3 mps 631 mmHg 36%
    20:00 0°C° 0 mm 3 mps 630 mmHg 40%
    21:00 0°C° 0 mm 3 mps 630 mmHg 41%
    22:00 -1°C° 0 mm 3 mps 630 mmHg 42%
    23:00 -1°C° 0 mm 3 mps 630 mmHg 43%

    Day after tomorrow, 28 September, Friday

    Time Temperature Precipitation Wind Pressure Humidity
    00:00 -1°C° 0 mm 3 mps 629 mmHg 43%
    01:00 -2°C° 0 mm 3 mps 629 mmHg 44%
    02:00 -2°C° 0 mm 3 mps 629 mmHg 44%
    03:00 -2°C° 0 mm 3 mps 628 mmHg 43%
    04:00 -2°C° 0 mm 3 mps 628 mmHg 42%
    05:00 -2°C° 0 mm 3 mps 628 mmHg 42%
    06:00 +1°C° 0 mm 2 mps 628 mmHg 38%
    07:00 +2°C° 0 mm 2 mps 629 mmHg 35%
    08:00 +4°C° 0 mm 2 mps 629 mmHg 32%
    09:00 +6°C° 0 mm 2 mps 630 mmHg 29%
    10:00 +8°C° 0 mm 2 mps 630 mmHg 27%
    11:00 +12°C° 0 mm 2 mps 631 mmHg 25%
    12:00 +12°C° 0 mm 2 mps 630 mmHg 25%
    13:00 +13°C° 0 mm 2 mps 630 mmHg 25%
    14:00 +13°C° 0 mm 3 mps 630 mmHg 25%
    15:00 +13°C° 0 mm 2 mps 629 mmHg 28%
    16:00 +13°C° 0 mm 2 mps 629 mmHg 31%
    17:00 +12°C° 0 mm 2 mps 628 mmHg 34%
    18:00 +10°C° 0 mm 2 mps 627 mmHg 38%
    19:00 +8°C° 0 mm 2 mps 627 mmHg 42%
    20:00 +7°C° 0 mm 1 mps 626 mmHg 45%
    21:00 +6°C° 0 mm 2 mps 626 mmHg 49%
    22:00 +5°C° 0 mm 2 mps 626 mmHg 52%
    23:00 +4°C° 0 mm 2 mps 625 mmHg 55%

    29 September, Saturday

    Time Temperature Precipitation Wind Pressure Humidity
    00:00 +4°C° 0 mm 2 mps 625 mmHg 58%
    01:00 +4°C° 0 mm 2 mps 625 mmHg 61%
    02:00 +4°C° 0 mm 2 mps 624 mmHg 63%
    03:00 +4°C° 0 mm 2 mps 624 mmHg 65%
    04:00 +4°C° 0 mm 2 mps 624 mmHg 67%
    05:00 +4°C° 0 mm 2 mps 624 mmHg 69%
    06:00 +5°C° 0.1 mm 2 mps 624 mmHg 68%
    07:00 +6°C° 0.1 mm 2 mps 624 mmHg 67%
    08:00 +7°C° 0.1 mm 2 mps 625 mmHg 67%
    09:00 +8°C° 0.1 mm 2 mps 625 mmHg 64%
    10:00 +9°C° 0.1 mm 2 mps 626 mmHg 61%
    11:00 +10°C° 0.1 mm 2 mps 626 mmHg 58%
    12:00 +10°C° 0 mm 2 mps 626 mmHg 59%
    13:00 +10°C° 0 mm 2 mps 626 mmHg 59%
    14:00 +10°C° 0 mm 2 mps 625 mmHg 59%
    15:00 +10°C° 0 mm 2 mps 625 mmHg 61%
    16:00 +10°C° 0 mm 2 mps 625 mmHg 63%
    17:00 +10°C° 0 mm 2 mps 625 mmHg 65%
    18:00 +9°C° 0.5 mm 2 mps 625 mmHg 70%
    19:00 +8°C° 0.5 mm 2 mps 625 mmHg 76%
    20:00 +8°C° 0.5 mm 1 mps 625 mmHg 82%
    21:00 +8°C° 1.4 mm 1 mps 625 mmHg 84%
    22:00 +6°C° 1.4 mm 2 mps 625 mmHg 86%
    23:00 +6°C° 1.4 mm 2 mps 625 mmHg 88%

    30 September, Sunday

    Time Temperature Precipitation Wind Pressure Humidity
    00:00 +6°C° 0.5 mm 2 mps 625 mmHg 89%
    01:00 +6°C° 0.5 mm 2 mps 625 mmHg 89%
    02:00 +6°C° 0.5 mm 2 mps 625 mmHg 90%
    03:00 +6°C° 0.2 mm 2 mps 625 mmHg 90%
    04:00 +6°C° 0.2 mm 2 mps 625 mmHg 90%
    05:00 +6°C° 0.2 mm 2 mps 625 mmHg 90%
    06:00 +6°C° 0.4 mm 2 mps 625 mmHg 89%
    07:00 +6°C° 0.4 mm 2 mps 626 mmHg 88%
    08:00 +6°C° 0.4 mm 2 mps 626 mmHg 87%
    09:00 +7°C° 0.5 mm 2 mps 626 mmHg 86%
    10:00 +7°C° 0.5 mm 2 mps 626 mmHg 85%
    11:00 +7°C° 0.5 mm 2 mps 626 mmHg 84%
    12:00 +7°C° 0.4 mm 2 mps 626 mmHg 85%
    13:00 +7°C° 0.4 mm 2 mps 626 mmHg 85%
    14:00 +7°C° 0.4 mm 2 mps 626 mmHg 85%
    15:00 +7°C° 0.1 mm 2 mps 626 mmHg 85%
    16:00 +7°C° 0.1 mm 2 mps 626 mmHg 85%
    17:00 +7°C° 0.1 mm 2 mps 626 mmHg 85%
    18:00 +7°C° 0 mm 2 mps 626 mmHg 86%
    19:00 +6°C° 0 mm 2 mps 626 mmHg 88%
    20:00 +6°C° 0 mm 2 mps 626 mmHg 89%
    21:00 +6°C° 0 mm 2 mps 626 mmHg 89%
    22:00 +7°C° 0 mm 1 mps 626 mmHg 89%
    23:00 +6°C° 0 mm 1 mps 626 mmHg 90%

    1 October, Monday

    Time Temperature Precipitation Wind Pressure Humidity
    00:00 +6°C° 0 mm 1 mps 625 mmHg 90%
    01:00 +6°C° 0 mm 1 mps 625 mmHg 90%
    02:00 +6°C° 0 mm 1 mps 625 mmHg 90%
    03:00 +5°C° 0 mm 1 mps 625 mmHg 90%
    04:00 +5°C° 0 mm 1 mps 625 mmHg 90%
    05:00 +5°C° 0 mm 1 mps 624 mmHg 89%
    06:00 +6°C° 0 mm 1 mps 625 mmHg 86%
    07:00 +8°C° 0 mm 1 mps 625 mmHg 82%
    08:00 +8°C° 0 mm 0 mps 626 mmHg 78%
    09:00 +10°C° 0 mm 1 mps 626 mmHg 73%
    10:00 +12°C° 0 mm 1 mps 626 mmHg 67%
    11:00 +13°C° 0 mm 2 mps 627 mmHg 62%
    12:00 +13°C° 0.1 mm 2 mps 627 mmHg 61%
    13:00 +14°C° 0.1 mm 2 mps 627 mmHg 61%
    14:00 +13°C° 0.1 mm 3 mps 626 mmHg 60%
    15:00 +14°C° 0.5 mm 2 mps 626 mmHg 64%
    16:00 +13°C° 0.5 mm 2 mps 626 mmHg 67%
    17:00 +12°C° 0.5 mm 2 mps 625 mmHg 71%
    18:00 +10°C° 0.5 mm 2 mps 625 mmHg 76%
    19:00 +10°C° 0.5 mm 1 mps 625 mmHg 82%
    20:00 +8°C° 0.5 mm 1 mps 624 mmHg 88%
    21:00 +8°C° 0.4 mm 1 mps 624 mmHg 89%
    22:00 +8°C° 0.4 mm 1 mps 624 mmHg 89%
    23:00 +7°C° 0.4 mm 1 mps 624 mmHg 90%
    Show more